カタログに戻る

STARLINK-31843

運用中通信VLEO
NORAD 59722·PAYLOAD·🇺🇸 United States

打ち上げ May 10, 2024 から Vandenberg Space Force Base

Loading…

次のパス (今後24時間)

TLE

最新Source: CelesTrak SupGP

元期: Sep 14, 2026, 22:35 UTC

1 59722C 24088Q   26257.94145833 -.00009751  00000+0 -31360-3 0  2572
2 59722  53.1607 339.9506 0001194  77.6678 159.1518 15.31702163    10

AllMySatでSTARLINK-31843をリアルタイム追跡

Download on the App Store